Current Weather Conditions by Major Hwy


I-84 West to East [Columbia River Gorge] 700 AM PDT THU APR 27 2017 ELEVA CITY SKY/WX TMP DP RH WIND PRES REMARKS 10 ASTORIA, OR CLOUDY 44 41 89 S3 30.10R 20 KELSO LGT RAIN 43 41 93 S5 30.13S 40 PORTLAND, OR MOCLDY 44 40 85 S8 30.13F 30 TROUTDALE, OR CLOUDY 46 41 82 SW10 30.13S 240 THE DALLES, OR LGT RAIN 45 39 79 W8 30.07R 620 HERMISTON, OR SUNNY 44 35 70 SW17G25 29.99R 1,480 PENDLETON, OR LGT RAIN 41 31 67 W24G33 29.97R 2,710 LA GRANDE CLOUDY 37 27 65 NW10 29.97R WCI 30 3,370 BAKER CITY CLOUDY 34 26 72 NW21G26 29.94R WCI 22 2,190 ONTARIO MOSUNNY 41 33 73 NW8 29.98R
I-90 West to East 700 AM PDT THU APR 27 2017 ELEVA CITY SKY/WX TMP DP RH WIND PRES REMARKS 30 SEATAC AIRPORT MOCLDY 44 38 79 S10 30.06R 1,730 ELLENSBURG SUNNY 41 31 67 W18G26 29.91S 1,200 MOSES LAKE SUNNY 42 29 59 SW10 29.88R 1,880 SPOKANE GEIGER PTSUNNY 37 29 72 SW15 29.82R
I-82 North West to South East 700 AM PDT THU APR 27 2017 ELEVA CITY SKY/WX TMP DP RH WIND PRES REMARKS 1,730 ELLENSBURG SUNNY 41 31 67 W18G26 29.91S 1,050 YAKIMA SUNNY 41 30 65 CALM 29.96R 720 360 PASCO SUNNY 44 32 62 SW17 29.98R 620 HERMISTON, OR SUNNY 44 35 70 SW17G25 29.99R
Hwy97 North to South 700 AM PDT THU APR 27 2017 ELEVA CITY SKY/WX TMP DP RH WIND PRES REMARKS 850 OMAK SUNNY 41 28 60 W6 29.82R 630 WENATCHEE SUNNY 44 26 49 NW16 29.87R 1,730 ELLENSBURG SUNNY 41 31 67 W18G26 29.91S 1,050 YAKIMA SUNNY 41 30 65 CALM 29.96R 1,640 GOLDENDALE* LGT RAIN 45 39 79 W8 30.07R *From Dallesport Airport Elev 240 3,080 REDMOND MOCLDY 40 24 53 W12G21 30.05R WCI 33 4,100 KLAMATH FALLS CLEAR 32 26 78 W12 30.05S WCI 23
I-5 North to South 700 AM PDT THU APR 27 2017 ELEVA CITY SKY/WX TMP DP RH WIND PRES REMARKS 150 BELLINGHAM CLOUDY 46 41 82 S9 30.01R 100 ARLINGTON CLOUDY 43 36 75 S7 30.08R 610 EVERETT MOCLDY 41 39 93 SE8 30.05R 30 SEATAC AIRPORT MOCLDY 44 38 79 S10 30.06R 200 OLYMPIA CLEAR 42 40 92 SW9 30.08S 20 KELSO LGT RAIN 43 41 93 S5 30.13S 100 VANCOUVER MOCLDY 45 42 89 CALM 30.13F 40 PORTLAND MOCLDY 44 40 85 S8 30.13F 200 SALEM LGT RAIN 44 41 89 S9 30.14S 360 EUGENE CLOUDY 44 42 93 S5 30.18R 510 ROSEBURG CLOUDY 40 39 97 SE3 30.20R 1,300 MEDFORD PTCLDY 39 37 92 CALM 30.19R
Data from:
http://www.wrh.noaa.gov/sew/get.php?pil=RWR&sid=OR&version=0&format=printer
http://www.wrh.noaa.gov/sew/get.php?pil=RWR&sid=WA&version=0&format=printer

Current Observations

Washington State Current Weather Observations   …  Oregon State Current Weather Observation



48 Hour Forecast

Seattle  …  Vancouver  …  Portland
————————————————————————————————————————
Bend  …  Spokane  …  Richland  …  Pendleton  …  Blue Mountains I-84  …  Yakima
————————————————————————————————————————
Goldendale, Washington Higher Elevations  …  Dallesport Airport - Goldendale  …  Bingen - White Salmon - Hood River  …  Index


Top of Page